Location: Newark
(42.9277°N, 71.8621°W)
Time: 08:02:22
(UTC+00:00)

Transit 4A - All Passes

Search period start: 26 May 2020 00:00
Search period end: 05 June 2020 00:00
Orbit: 869 x 976 km, 66.8° (Epoch: 23 May)

Date Brightness Start Highest point End Pass type
(mag) Time Alt. Az. Time Alt. Az. Time Alt. Az.
26 May - 06:33:03 10° S 06:38:14 35° ESE 06:43:30 10° NE visible
26 May - 08:19:03 10° WSW 08:24:29 40° NW 08:30:03 10° NNE visible
26 May - 10:11:06 10° NW 10:12:38 11° NNW 10:14:09 10° NNW daylight
26 May - 13:49:14 10° N 13:51:57 13° NNE 13:54:42 10° ENE daylight
26 May - 15:33:55 10° NNW 15:39:51 49° NE 15:45:54 10° SE daylight
26 May - 17:20:40 10° NW 17:25:59 31° WSW 17:31:24 10° S daylight
27 May - 06:41:48 10° S 06:47:24 53° ESE 06:53:07 10° NE visible
27 May - 08:29:00 10° WSW 08:34:02 29° NW 08:39:11 10° NNE visible
27 May - 13:57:57 10° N 14:01:47 17° NE 14:05:41 10° ENE daylight
27 May - 15:43:09 10° NNW 15:49:17 69° ENE 15:55:32 10° SE daylight
27 May - 17:30:37 10° WNW 17:35:05 21° WSW 17:39:36 10° SSW daylight
28 May - 05:09:54 10° ESE 05:11:21 11° E 05:12:49 10° E visible
28 May - 06:50:51 10° SSW 06:56:39 78° ESE 07:02:33 10° NNE visible
28 May - 08:39:14 10° W 08:43:41 22° NW 08:48:13 10° N visible
28 May - 14:06:52 10° N 14:11:32 22° NE 14:16:16 10° E daylight
28 May - 15:52:27 10° NNW 15:58:38 84° WSW 16:04:55 10° SSE daylight
28 May - 17:41:12 10° WNW 17:44:06 14° WSW 17:47:01 10° SW daylight
29 May - 05:16:36 10° SE 05:20:20 18° ESE 05:24:06 10° ENE visible
29 May - 07:00:11 10° SW 07:05:58 73° WNW 07:11:54 10° NNE visible
29 May - 08:49:45 10° WNW 08:53:25 17° NW 08:57:09 10° N daylight
29 May - 14:15:54 10° NNW 14:21:11 29° NE 14:26:34 10° ESE daylight
29 May - 16:01:53 10° NW 16:07:54 59° WSW 16:14:04 10° SSE daylight
30 May - 05:24:36 10° SSE 05:29:22 27° ESE 05:34:13 10° NE visible
30 May - 07:09:44 10° SW 07:15:22 50° NW 07:21:09 10° NNE visible
30 May - 09:00:39 10° WNW 09:03:15 13° NNW 09:05:53 10° N daylight
30 May - 12:40:51 10° N 12:42:36 11° NNE 12:44:20 10° NE daylight
30 May - 14:25:01 10° NNW 14:30:45 40° NE 14:36:36 10° ESE daylight
30 May - 16:11:26 10° NW 16:17:07 40° WSW 16:22:54 10° S daylight
31 May - 05:33:07 10° S 05:38:29 41° ESE 05:43:57 10° NE visible
31 May - 07:19:33 10° WSW 07:24:52 36° NW 07:30:19 10° NNE visible
31 May - 09:12:53 10° NNW 09:13:09 10° NNW 09:13:27 10° NNW daylight
31 May - 12:49:16 10° N 12:52:29 14° NNE 12:55:43 10° ENE daylight
31 May - 14:34:12 10° NNW 14:40:14 55° NE 14:46:23 10° SE daylight
31 May - 16:21:10 10° NW 16:26:15 27° WSW 16:31:24 10° SSW daylight
01 Jun - 05:41:59 10° SSW 05:47:41 61° ESE 05:53:30 10° NE visible
01 Jun - 07:29:36 10° W 07:34:28 26° NW 07:39:25 10° NNE visible
01 Jun - 12:58:06 10° N 13:02:17 19° NE 13:06:31 10° E daylight
01 Jun - 14:43:27 10° NNW 14:49:37 78° ENE 14:55:56 10° SE daylight
01 Jun - 16:31:17 10° WNW 16:35:18 18° WSW 16:39:23 10° SW daylight
02 Jun - 04:08:56 10° SE 04:11:32 13° ESE 04:14:10 10° ENE visible
02 Jun - 05:51:08 10° SSW 05:56:57 89° ESE 06:02:54 10° NNE visible
02 Jun - 07:39:55 10° W 07:44:08 20° NW 07:48:25 10° N visible
02 Jun - 13:07:04 10° N 13:11:59 24° NE 13:16:59 10° E daylight
02 Jun - 14:52:47 10° NW 14:58:57 74° WSW 15:05:14 10° SSE daylight
02 Jun - 16:42:25 10° W 16:44:18 11° W 16:46:11 10° WSW daylight
03 Jun - 04:16:21 10° SSE 04:20:32 21° ESE 04:24:46 10° ENE visible
03 Jun - 06:00:33 10° SW 06:06:19 64° NW 06:12:13 10° NNE visible
03 Jun - 07:50:34 10° WNW 07:53:54 15° NNW 07:57:18 10° N visible
03 Jun - 13:16:08 10° NNW 13:21:36 33° NE 13:27:11 10° ESE daylight
03 Jun - 15:02:15 10° NW 15:08:12 51° WSW 15:14:16 10° S daylight
04 Jun - 04:24:34 10° S 04:29:36 31° ESE 04:34:43 10° NE visible
04 Jun - 06:10:12 10° SW 06:15:44 45° NW 06:21:26 10° NNE visible
04 Jun - 08:01:40 10° NW 08:03:46 12° NNW 08:05:53 10° N visible
04 Jun - 11:40:44 10° N 11:43:07 12° NNE 11:45:33 10° NE daylight
04 Jun - 13:25:16 10° NNW 13:31:09 45° NE 13:37:08 10° SE daylight
04 Jun - 15:11:52 10° NW 15:17:23 35° WSW 15:22:59 10° S daylight
